Regional Weather Roundup
Issued by NWS Sioux Falls, SD

Home | Current Version | Previous Version | Text Only | Print | Product List | Glossary Off
Versions: 1 2 3 4 5 6 7 8 9 10 11 12 13 14 15 16 17 18 19 20 21 22 23 24 25 26 27 28 29 30 31 32 33 34 35 36 37 38 39 40 41 42 43 44 45 46 47 48 49 50

000
ASUS43 KFSD 201002
RWRFSD

WEATHER ROUNDUP FOR SE SOUTH DAKOTA/SW MINNESOTA/NW IOWA
NATIONAL WEATHER SERVICE SIOUX FALLS SD
400 AM CST MON NOV 20 2017

NOTE: "FAIR" INDICATES FEW OR NO CLOUDS BELOW 12,000 FEET WITH NO
SIGNIFICANT WEATHER AND OR OBSTRUCTIONS TO VISIBILITY.


SDZ038>040-050-052>070-201100-
SOUTHEAST SOUTH DAKOTA

CITY           SKY/WX    TMP DP  RH WIND       PRES   REMARKS
BROOKINGS      CLOUDY    28  22  78 SE8       29.65  WCI  20
CHAMBERLAIN    CLOUDY    30  21  70 SW6       29.61F WCI  24
HURON          CLOUDY    28  22  78 SE8       29.61F WCI  20
MADISON        FAIR      27  27 100 S12       29.65F WCI  16
MITCHELL       CLOUDY    30  24  78 S6        29.64F WCI  24
SIOUX FALLS    CLOUDY    25  21  85 SE3       29.67F
WINNER         FAIR      39  19  44 SW9       29.63F
YANKTON        CLOUDY    36  23  59 SE5       29.68F
$$

MNZ071-072-080-081-089-090-097-098-201100-
SOUTHWEST MINNESOTA

CITY           SKY/WX    TMP DP  RH WIND       PRES   REMARKS
FAIRMONT       CLOUDY    27  25  92 S10       29.73F WCI  17
JACKSON        CLOUDY    32  27  80 S10       29.72F WCI  24
LUVERNE        CLOUDY    19  14  79 S3        29.70F
MARSHALL       CLOUDY    34  23  64 S8        29.66F WCI  27
MONTEVIDEO     CLOUDY    30  25  80 SW8       29.65F WCI  23
PIPESTONE      CLOUDY    27  21  80 SE6       29.66F WCI  20
REDWOOD FALLS  CLOUDY    27  21  78 SE7       29.68F WCI  19
WINDOM         CLOUDY    34  18  51 S6        29.69F WCI  29
WORTHINGTON    CLOUDY    32  24  72 S13       29.70F WCI  22
$$

IAZ001>003-012>014-020>022-031-032-NEZ013-014-SDZ071-201100-
NORTHWEST IOWA

CITY           SKY/WX    TMP DP  RH WIND       PRES   REMARKS
DENISON        CLOUDY    34  25  69 S12       29.80F WCI  25
ESTHERVILLE    CLEAR     26  24  92 S9        29.73F WCI  17
LE MARS        CLEAR     32  25  74 S8        29.73F WCI  25
ORANGE CITY    CLOUDY    34  28  80 S7        29.72F WCI  28
SHELDON        CLOUDY    28  25  86 SE9       29.71F WCI  20
SIOUX CITY     CLEAR     27  23  85 E8        29.74F WCI  19
SPENCER        CLOUDY    30  23  75 S8        29.74F WCI  22
STORM LAKE     CLEAR     36  25  64 S8        29.74F
$$

ABBREVIATIONS USED IN REMARKS
   TC - TEMPERATURE IN CELSIUS
  WCI - WIND CHILL INDEX
   HX - HEAT INDEX
  VSB - VISIBILITY





USA.gov is the U.S. government's official web portal to all federal, state and local government web resources and services.